Regional Weather Roundup
Issued by NWS Green Bay, WI

Home | Current Version | Previous Version | Text Only | Print | Product List | Glossary On
Versions: 1 2 3 4 5 6 7 8 9 10 11 12 13 14 15 16 17 18 19 20 21 22 23 24 25 26 27 28 29 30 31 32 33 34 35 36 37 38 39 40 41 42 43 44 45 46 47 48 49 50
000
ASUS43 KGRB 260011
RWRGRB

NORTH-CENTRAL AND NORTHEAST WISCONSIN REGIONAL WEATHER ROUNDUP
NATIONAL WEATHER SERVICE GREEN BAY WI
700 PM CDT THU MAY 25 2017

WIZ005-009-010>012-018-019-260100-
NORTH CENTRAL WISCONSIN

CITY           SKY/WX    TMP DP  RH WIND       PRES   REMARKS
IRONWOOD       SUNNY     69  48  47 E7        29.68S
MANITOWISH WTR MOSUNNY   69  46  43 SE3       29.68R
ARBOR VITAE    MOSUNNY   72  48  43 SE6       29.68S
EAGLE RIVER    SUNNY     69  41  36 SE5       29.69S
LAND O LAKES   SUNNY     70  43  38 SE5       29.71R
RHINELANDER    CLOUDY    69  47  45 E7        29.69R
PHILLIPS       CLOUDY    68  50  51 SE3       29.67R
ANTIGO         SUNNY     65  53  63 S3        29.69S
TOMAHAWK       MOSUNNY   68  47  48 CALM      29.69R
MERRILL        CLOUDY    68  51  53 SE6       29.68S
$$

WIZ013-073-260100-
NORTHEAST WISCONSIN

CITY           SKY/WX    TMP DP  RH WIND       PRES   REMARKS
IRON MOUNTAIN  SUNNY     69  42  37 NE8       29.67R
MARINETTE      PTSUNNY   63  51  65 NE5       29.69R
OCONTO         MOSUNNY   66  49  54 NE6       29.68R
$$

WIZ017-030-035>037-045-260100-
CENTRAL WISCONSIN

CITY           SKY/WX    TMP DP  RH WIND       PRES   REMARKS
MEDFORD        MOSUNNY   68  51  54 SW3       29.67S
WAUSAU         CLOUDY    67  50  54 S5        29.66R
MOSINEE        PTSUNNY   68  52  56 CALM      29.69R
MARSHFIELD     SUNNY     70  47  43 SW7       29.67R
WISC RAPIDS    SUNNY     72  50  45 S5        29.68S
STEVENS POINT  SUNNY     68  49  49 CALM      29.69R
WAUPACA        SUNNY     72  51  47 SE7       29.68R
SHAWANO        CLOUDY    69  52  55 S3        29.69R
CLINTONVILLE   SUNNY     68  52  56 S5        29.68R
WAUTOMA        SUNNY     70  51  51 SE7       29.68R
$$

WIZ038-039-048-051-260100-
FOX VALLEY

CITY           SKY/WX    TMP DP  RH WIND       PRES   REMARKS
NWS GREEN BAY  SUNNY     68  53  58 NE6       29.68R
APPLETON       MOSUNNY   68  43  40 E9        29.67R
OSHKOSH        SUNNY     67  50  54 NE7       29.68R
FOND DU LAC    SUNNY     68  53  58 NE7       29.68R
$$

WIZ022-050-052-260100-
EAST CENTRAL WISCONSIN

CITY           SKY/WX    TMP DP  RH WIND       PRES   REMARKS
EPHRAIM        CLOUDY    57  54  87 E7        29.69R
WASHINGTON ISL CLOUDY    56  51  84 E6        29.69R
STURGEON BAY   MOSUNNY   63  52  67 E8        29.69R
MANITOWOC      SUNNY     61  52  72 NE7       29.69R
SHEBOYGAN      SUNNY     61  54  77 NE8       29.69R
$$

LMZ563-521-522-541>543-260100-
LAKESHORE

STATION/POSITION TIME  TEMP    WIND        PRES    VSBY  WAVE
                       AIR SEA DIR/SP/G                  HT/PER
                 (UTC) (F)     (DEG/KT/KT) (MB)    (MI)  (FT/S)
SHEBOYGAN LKSHOR 0000   54     360/ 11/ 12 1005.0R
KEWAUNEE LKSHORE 2342   57      30/  4/  6 1004.9R
NORTHPORT PIER   2340   53      70/  6/  8 1005.4R
N MID LAKE BUOY  2350   45 41   30/  6/  8 1006.3R         0
CHAMBERS ISLAND  2340   59      40/  7/ 11 1005.1R
MENOMINEE LKSHOR 2348           10/  7/  7 1004.3R
$$




USA.gov is the U.S. government's official web portal to all federal, state and local government web resources and services.